owner,sensor,date,latitude,longitude,vertical_datum,mass_concentration_of_oxygen_in_sea_water,qcFlag 
SCCF RECON,ioos:station:SCCF:13:1,2017-09-01T00:00:00Z,26.5255,-82.0032,2.36,-9999.0,1111122 
SCCF RECON,ioos:station:SCCF:13:1,2017-09-01T01:00:00Z,26.5255,-82.0032,2.42,-9999.0,1111122 
SCCF RECON,ioos:station:SCCF:13:1,2017-09-01T02:00:00Z,26.5255,-82.0032,2.49,-9999.0,1111122 
SCCF RECON,ioos:station:SCCF:13:1,2017-09-01T03:00:00Z,26.5255,-82.0032,2.56,-9999.0,1111122 
SCCF RECON,ioos:station:SCCF:13:1,2017-09-01T04:00:00Z,26.5255,-82.0032,2.6,-9999.0,1111122 
SCCF RECON,ioos:station:SCCF:13:1,2017-09-01T05:00:00Z,26.5255,-82.0032,2.59,-9999.0,1111122 
SCCF RECON,ioos:station:SCCF:13:1,2017-09-01T06:00:00Z,26.5255,-82.0032,2.58,-9999.0,1111122 
SCCF RECON,ioos:station:SCCF:13:1,2017-09-01T07:00:00Z,26.5255,-82.0032,2.51,-9999.0,1111122 
SCCF RECON,ioos:station:SCCF:13:1,2017-09-01T08:00:00Z,26.5255,-82.0032,2.47,-9999.0,1111122 
SCCF RECON,ioos:station:SCCF:13:1,2017-09-01T09:00:00Z,26.5255,-82.0032,2.49,-9999.0,1111122 
SCCF RECON,ioos:station:SCCF:13:1,2017-09-01T10:00:00Z,26.5255,-82.0032,2.54,-9999.0,1111122 
SCCF RECON,ioos:station:SCCF:13:1,2017-09-01T11:00:00Z,26.5255,-82.0032,2.6,-9999.0,1111122 
SCCF RECON,ioos:station:SCCF:13:1,2017-09-01T12:00:00Z,26.5255,-82.0032,2.693,-9999.0,1111122 
SCCF RECON,ioos:station:SCCF:13:1,2017-09-01T13:00:00Z,26.5255,-82.0032,2.765,-9999.0,1111122 
SCCF RECON,ioos:station:SCCF:13:1,2017-09-01T14:00:00Z,26.5255,-82.0032,2.79,-9999.0,1111122 
SCCF RECON,ioos:station:SCCF:13:1,2017-09-01T15:00:00Z,26.5255,-82.0032,2.764,-9999.0,1111122 
SCCF RECON,ioos:station:SCCF:13:1,2017-09-01T16:00:00Z,26.5255,-82.0032,2.708,-9999.0,1111122 
SCCF RECON,ioos:station:SCCF:13:1,2017-09-01T17:00:00Z,26.5255,-82.0032,2.64,-9999.0,1111122 
SCCF RECON,ioos:station:SCCF:13:1,2017-09-01T18:00:00Z,26.5255,-82.0032,2.55,-9999.0,1111122 
SCCF RECON,ioos:station:SCCF:13:1,2017-09-01T19:00:00Z,26.5255,-82.0032,2.46,-9999.0,1111122 
SCCF RECON,ioos:station:SCCF:13:1,2017-09-01T20:00:00Z,26.5255,-82.0032,2.362,-9999.0,1111122 
SCCF RECON,ioos:station:SCCF:13:1,2017-09-01T21:00:00Z,26.5255,-82.0032,2.271,-9999.0,1111122 
SCCF RECON,ioos:station:SCCF:13:1,2017-09-01T22:00:00Z,26.5255,-82.0032,2.23,-9999.0,1111122 
SCCF RECON,ioos:station:SCCF:13:1,2017-09-01T23:00:00Z,26.5255,-82.0032,2.28,-9999.0,1111122 
SCCF RECON,ioos:station:SCCF:13:1,2017-09-02T00:00:00Z,26.5255,-82.0032,2.404,-9999.0,1111122 
SCCF RECON,ioos:station:SCCF:13:1,2017-09-02T01:00:00Z,26.5255,-82.0032,2.5,-9999.0,1111122 
SCCF RECON,ioos:station:SCCF:13:1,2017-09-02T02:00:00Z,26.5255,-82.0032,2.53,-9999.0,1111122 
SCCF RECON,ioos:station:SCCF:13:1,2017-09-02T03:00:00Z,26.5255,-82.0032,2.602,-9999.0,1111122 
SCCF RECON,ioos:station:SCCF:13:1,2017-09-02T04:00:00Z,26.5255,-82.0032,2.668,-9999.0,1111122 
SCCF RECON,ioos:station:SCCF:13:1,2017-09-02T05:00:00Z,26.5255,-82.0032,2.65,-9999.0,1111122 
SCCF RECON,ioos:station:SCCF:13:1,2017-09-02T06:00:00Z,26.5255,-82.0032,2.6,-9999.0,1111122 
SCCF RECON,ioos:station:SCCF:13:1,2017-09-02T07:00:00Z,26.5255,-82.0032,2.48,-9999.0,1111122 
SCCF RECON,ioos:station:SCCF:13:1,2017-09-02T08:00:00Z,26.5255,-82.0032,2.45,-9999.0,1111122 
SCCF RECON,ioos:station:SCCF:13:1,2017-09-02T09:00:00Z,26.5255,-82.0032,2.41,-9999.0,1111122 
SCCF RECON,ioos:station:SCCF:13:1,2017-09-02T10:00:00Z,26.5255,-82.0032,2.44,-9999.0,1111122 
SCCF RECON,ioos:station:SCCF:13:1,2017-09-02T11:00:00Z,26.5255,-82.0032,2.52,-9999.0,1111122 
SCCF RECON,ioos:station:SCCF:13:1,2017-09-02T12:00:00Z,26.5255,-82.0032,2.58,-9999.0,1111122 
SCCF RECON,ioos:station:SCCF:13:1,2017-09-02T13:00:00Z,26.5255,-82.0032,2.616,-9999.0,1111122 
SCCF RECON,ioos:station:SCCF:13:1,2017-09-02T14:00:00Z,26.5255,-82.0032,2.67,-9999.0,1111122 
SCCF RECON,ioos:station:SCCF:13:1,2017-09-02T15:00:00Z,26.5255,-82.0032,2.76,-9999.0,1111122 
SCCF RECON,ioos:station:SCCF:13:1,2017-09-02T16:00:00Z,26.5255,-82.0032,2.78,-9999.0,1111122 
SCCF RECON,ioos:station:SCCF:13:1,2017-09-02T17:00:00Z,26.5255,-82.0032,2.72,-9999.0,1111122 
SCCF RECON,ioos:station:SCCF:13:1,2017-09-02T18:00:00Z,26.5255,-82.0032,2.63,-9999.0,1111122 
SCCF RECON,ioos:station:SCCF:13:1,2017-09-02T19:00:00Z,26.5255,-82.0032,2.49,-9999.0,1111122 
SCCF RECON,ioos:station:SCCF:13:1,2017-09-02T20:00:00Z,26.5255,-82.0032,2.404,-9999.0,1111122 
SCCF RECON,ioos:station:SCCF:13:1,2017-09-02T21:00:00Z,26.5255,-82.0032,2.33,-9999.0,1111122 
SCCF RECON,ioos:station:SCCF:13:1,2017-09-02T22:00:00Z,26.5255,-82.0032,2.26,-9999.0,1111122 
SCCF RECON,ioos:station:SCCF:13:1,2017-09-02T23:00:00Z,26.5255,-82.0032,2.22,-9999.0,1111122 
SCCF RECON,ioos:station:SCCF:13:1,2017-09-03T00:00:00Z,26.5255,-82.0032,2.25,-9999.0,1111122 
SCCF RECON,ioos:station:SCCF:13:1,2017-09-03T01:00:00Z,26.5255,-82.0032,2.32,-9999.0,1111122 
SCCF RECON,ioos:station:SCCF:13:1,2017-09-03T02:00:00Z,26.5255,-82.0032,2.49,-9999.0,1111122 
SCCF RECON,ioos:station:SCCF:13:1,2017-09-03T03:00:00Z,26.5255,-82.0032,2.56,-9999.0,1111122 
SCCF RECON,ioos:station:SCCF:13:1,2017-09-03T04:00:00Z,26.5255,-82.0032,2.57,-9999.0,1111122 
SCCF RECON,ioos:station:SCCF:13:1,2017-09-03T05:00:00Z,26.5255,-82.0032,2.59,-9999.0,1111122 
SCCF RECON,ioos:station:SCCF:13:1,2017-09-03T06:00:00Z,26.5255,-82.0032,2.61,-9999.0,1111122 
SCCF RECON,ioos:station:SCCF:13:1,2017-09-03T07:00:00Z,26.5255,-82.0032,2.54,-9999.0,1111122 
SCCF RECON,ioos:station:SCCF:13:1,2017-09-03T08:00:00Z,26.5255,-82.0032,2.47,-9999.0,1111122 
SCCF RECON,ioos:station:SCCF:13:1,2017-09-03T09:00:00Z,26.5255,-82.0032,2.41,-9999.0,1111122 
SCCF RECON,ioos:station:SCCF:13:1,2017-09-03T10:00:00Z,26.5255,-82.0032,2.4,-9999.0,1111122 
SCCF RECON,ioos:station:SCCF:13:1,2017-09-03T11:00:00Z,26.5255,-82.0032,2.44,-9999.0,1111122 
SCCF RECON,ioos:station:SCCF:13:1,2017-09-03T12:00:00Z,26.5255,-82.0032,2.51,-9999.0,1111122 
SCCF RECON,ioos:station:SCCF:13:1,2017-09-03T13:00:00Z,26.5255,-82.0032,2.61,-9999.0,1111122 
SCCF RECON,ioos:station:SCCF:13:1,2017-09-03T14:00:00Z,26.5255,-82.0032,2.69,-9999.0,1111122 
SCCF RECON,ioos:station:SCCF:13:1,2017-09-03T15:00:00Z,26.5255,-82.0032,2.752,-9999.0,1111122 
SCCF RECON,ioos:station:SCCF:13:1,2017-09-03T16:00:00Z,26.5255,-82.0032,2.78,-9999.0,1111122 
SCCF RECON,ioos:station:SCCF:13:1,2017-09-03T17:00:00Z,26.5255,-82.0032,2.76,-9999.0,1111122 
SCCF RECON,ioos:station:SCCF:13:1,2017-09-03T18:00:00Z,26.5255,-82.0032,2.66,-9999.0,1111122 
SCCF RECON,ioos:station:SCCF:13:1,2017-09-03T19:00:00Z,26.5255,-82.0032,2.526,-9999.0,1111122 
SCCF RECON,ioos:station:SCCF:13:1,2017-09-03T20:00:00Z,26.5255,-82.0032,2.414,-9999.0,1111122 
SCCF RECON,ioos:station:SCCF:13:1,2017-09-03T21:00:00Z,26.5255,-82.0032,2.322,-9999.0,1111122 
SCCF RECON,ioos:station:SCCF:13:1,2017-09-03T22:00:00Z,26.5255,-82.0032,2.235,-9999.0,1111122 
SCCF RECON,ioos:station:SCCF:13:1,2017-09-03T23:00:00Z,26.5255,-82.0032,2.17,-9999.0,1111122 
SCCF RECON,ioos:station:SCCF:13:1,2017-09-04T00:00:00Z,26.5255,-82.0032,2.17,-9999.0,1111122 
SCCF RECON,ioos:station:SCCF:13:1,2017-09-04T01:00:00Z,26.5255,-82.0032,2.27,-9999.0,1111122 
SCCF RECON,ioos:station:SCCF:13:1,2017-09-04T02:00:00Z,26.5255,-82.0032,2.43,-9999.0,1111122 
SCCF RECON,ioos:station:SCCF:13:1,2017-09-04T03:00:00Z,26.5255,-82.0032,2.51,-9999.0,1111122 
SCCF RECON,ioos:station:SCCF:13:1,2017-09-04T04:00:00Z,26.5255,-82.0032,2.56,-9999.0,1111122 
SCCF RECON,ioos:station:SCCF:13:1,2017-09-04T05:00:00Z,26.5255,-82.0032,2.63,-9999.0,1111122 
SCCF RECON,ioos:station:SCCF:13:1,2017-09-04T06:00:00Z,26.5255,-82.0032,2.629,-9999.0,1111122 
SCCF RECON,ioos:station:SCCF:13:1,2017-09-04T07:00:00Z,26.5255,-82.0032,2.58,-9999.0,1111122 
SCCF RECON,ioos:station:SCCF:13:1,2017-09-04T08:00:00Z,26.5255,-82.0032,2.52,-9999.0,1111122 
SCCF RECON,ioos:station:SCCF:13:1,2017-09-04T09:00:00Z,26.5255,-82.0032,2.45,-9999.0,1111122 
SCCF RECON,ioos:station:SCCF:13:1,2017-09-04T10:00:00Z,26.5255,-82.0032,2.41,-9999.0,1111122 
SCCF RECON,ioos:station:SCCF:13:1,2017-09-04T11:00:00Z,26.5255,-82.0032,2.39,-9999.0,1111122 
SCCF RECON,ioos:station:SCCF:13:1,2017-09-04T12:00:00Z,26.5255,-82.0032,2.45,-9999.0,1111122 
SCCF RECON,ioos:station:SCCF:13:1,2017-09-04T13:00:00Z,26.5255,-82.0032,2.56,-9999.0,1111122 
SCCF RECON,ioos:station:SCCF:13:1,2017-09-04T14:00:00Z,26.5255,-82.0032,2.671,-9999.0,1111122 
SCCF RECON,ioos:station:SCCF:13:1,2017-09-04T15:00:00Z,26.5255,-82.0032,2.76,-9999.0,1111122 
SCCF RECON,ioos:station:SCCF:13:1,2017-09-04T16:00:00Z,26.5255,-82.0032,2.815,-9999.0,1111122 
SCCF RECON,ioos:station:SCCF:13:1,2017-09-04T17:00:00Z,26.5255,-82.0032,2.839,-9999.0,1111122 
SCCF RECON,ioos:station:SCCF:13:1,2017-09-04T18:00:00Z,26.5255,-82.0032,2.8,-9999.0,1111122 
SCCF RECON,ioos:station:SCCF:13:1,2017-09-04T19:00:00Z,26.5255,-82.0032,2.672,-9999.0,1111122 
SCCF RECON,ioos:station:SCCF:13:1,2017-09-04T20:00:00Z,26.5255,-82.0032,2.516,-9999.0,1111122 
SCCF RECON,ioos:station:SCCF:13:1,2017-09-04T21:00:00Z,26.5255,-82.0032,2.407,-9999.0,1111122 
SCCF RECON,ioos:station:SCCF:13:1,2017-09-04T22:00:00Z,26.5255,-82.0032,2.328,-9999.0,1111122 
SCCF RECON,ioos:station:SCCF:13:1,2017-09-04T23:00:00Z,26.5255,-82.0032,2.246,-9999.0,1111122 
SCCF RECON,ioos:station:SCCF:13:1,2017-09-05T00:00:00Z,26.5255,-82.0032,2.19,-9999.0,1111122 
SCCF RECON,ioos:station:SCCF:13:1,2017-09-05T01:00:00Z,26.5255,-82.0032,2.29,-9999.0,1111122 
SCCF RECON,ioos:station:SCCF:13:1,2017-09-05T02:00:00Z,26.5255,-82.0032,2.37,-9999.0,1111122 
SCCF RECON,ioos:station:SCCF:13:1,2017-09-05T03:00:00Z,26.5255,-82.0032,2.49,-9999.0,1111122 
SCCF RECON,ioos:station:SCCF:13:1,2017-09-05T04:00:00Z,26.5255,-82.0032,2.56,-9999.0,1111122 
SCCF RECON,ioos:station:SCCF:13:1,2017-09-05T05:00:00Z,26.5255,-82.0032,2.62,-9999.0,1111122 
SCCF RECON,ioos:station:SCCF:13:1,2017-09-05T06:00:00Z,26.5255,-82.0032,2.66,-9999.0,1111122 
SCCF RECON,ioos:station:SCCF:13:1,2017-09-05T07:00:00Z,26.5255,-82.0032,2.64,-9999.0,1111122 
SCCF RECON,ioos:station:SCCF:13:1,2017-09-05T08:00:00Z,26.5255,-82.0032,2.58,-9999.0,1111122 
SCCF RECON,ioos:station:SCCF:13:1,2017-09-05T09:00:00Z,26.5255,-82.0032,2.49,-9999.0,1111122 
SCCF RECON,ioos:station:SCCF:13:1,2017-09-05T10:00:00Z,26.5255,-82.0032,2.43,-9999.0,1111122 
SCCF RECON,ioos:station:SCCF:13:1,2017-09-05T11:00:00Z,26.5255,-82.0032,2.36,-9999.0,1111122 
SCCF RECON,ioos:station:SCCF:13:1,2017-09-05T12:00:00Z,26.5255,-82.0032,2.35,-9999.0,1111122 
SCCF RECON,ioos:station:SCCF:13:1,2017-09-05T13:00:00Z,26.5255,-82.0032,2.479,-9999.0,1111122 
SCCF RECON,ioos:station:SCCF:13:1,2017-09-05T14:00:00Z,26.5255,-82.0032,2.64,-9999.0,1111122 
SCCF RECON,ioos:station:SCCF:13:1,2017-09-05T15:00:00Z,26.5255,-82.0032,2.759,-9999.0,1111122 
SCCF RECON,ioos:station:SCCF:13:1,2017-09-05T16:00:00Z,26.5255,-82.0032,2.82,-9999.0,1111122 
SCCF RECON,ioos:station:SCCF:13:1,2017-09-05T17:00:00Z,26.5255,-82.0032,2.861,-9999.0,1111122 
SCCF RECON,ioos:station:SCCF:13:1,2017-09-05T18:00:00Z,26.5255,-82.0032,2.85,-9999.0,1111122 
SCCF RECON,ioos:station:SCCF:13:1,2017-09-05T19:00:00Z,26.5255,-82.0032,2.78,-9999.0,1111122 
SCCF RECON,ioos:station:SCCF:13:1,2017-09-05T20:00:00Z,26.5255,-82.0032,2.66,-9999.0,1111122 
SCCF RECON,ioos:station:SCCF:13:1,2017-09-05T21:00:00Z,26.5255,-82.0032,2.52,-9999.0,1111122 
SCCF RECON,ioos:station:SCCF:13:1,2017-09-05T22:00:00Z,26.5255,-82.0032,2.424,-9999.0,1111122 
SCCF RECON,ioos:station:SCCF:13:1,2017-09-05T23:00:00Z,26.5255,-82.0032,2.351,-9999.0,1111122 
SCCF RECON,ioos:station:SCCF:13:1,2017-09-06T00:00:00Z,26.5255,-82.0032,2.261,-9999.0,1111122 
SCCF RECON,ioos:station:SCCF:13:1,2017-09-06T01:00:00Z,26.5255,-82.0032,2.25,-9999.0,1111122 
SCCF RECON,ioos:station:SCCF:13:1,2017-09-06T02:00:00Z,26.5255,-82.0032,2.39,-9999.0,1111122 
SCCF RECON,ioos:station:SCCF:13:1,2017-09-06T03:00:00Z,26.5255,-82.0032,2.537,-9999.0,1111122 
SCCF RECON,ioos:station:SCCF:13:1,2017-09-06T04:00:00Z,26.5255,-82.0032,2.587,-9999.0,1111122 
SCCF RECON,ioos:station:SCCF:13:1,2017-09-06T05:00:00Z,26.5255,-82.0032,2.68,-9999.0,1111122 
SCCF RECON,ioos:station:SCCF:13:1,2017-09-06T06:00:00Z,26.5255,-82.0032,2.74,-9999.0,1111122 
SCCF RECON,ioos:station:SCCF:13:1,2017-09-06T07:00:00Z,26.5255,-82.0032,2.686,-9999.0,1111122 
SCCF RECON,ioos:station:SCCF:13:1,2017-09-06T08:00:00Z,26.5255,-82.0032,2.69,-9999.0,1111122 
SCCF RECON,ioos:station:SCCF:13:1,2017-09-06T09:00:00Z,26.5255,-82.0032,2.577,-9999.0,1111122 
SCCF RECON,ioos:station:SCCF:13:1,2017-09-06T10:00:00Z,26.5255,-82.0032,2.46,-9999.0,1111122 
SCCF RECON,ioos:station:SCCF:13:1,2017-09-06T11:00:00Z,26.5255,-82.0032,2.4,-9999.0,1111122 
SCCF RECON,ioos:station:SCCF:13:1,2017-09-06T12:00:00Z,26.5255,-82.0032,2.38,-9999.0,1111122 
SCCF RECON,ioos:station:SCCF:13:1,2017-09-06T13:00:00Z,26.5255,-82.0032,2.426,-9999.0,1111122 
SCCF RECON,ioos:station:SCCF:13:1,2017-09-06T14:00:00Z,26.5255,-82.0032,2.583,-9999.0,1111122 
SCCF RECON,ioos:station:SCCF:13:1,2017-09-06T15:00:00Z,26.5255,-82.0032,2.724,-9999.0,1111122 
SCCF RECON,ioos:station:SCCF:13:1,2017-09-06T16:00:00Z,26.5255,-82.0032,2.82,-9999.0,1111122 
SCCF RECON,ioos:station:SCCF:13:1,2017-09-06T17:00:00Z,26.5255,-82.0032,2.893,-9999.0,1111122 
SCCF RECON,ioos:station:SCCF:13:1,2017-09-06T18:00:00Z,26.5255,-82.0032,2.94,-9999.0,1111122 
SCCF RECON,ioos:station:SCCF:13:1,2017-09-06T19:00:00Z,26.5255,-82.0032,2.92,-9999.0,1111122 
SCCF RECON,ioos:station:SCCF:13:1,2017-09-06T20:00:00Z,26.5255,-82.0032,2.815,-9999.0,1111122 
SCCF RECON,ioos:station:SCCF:13:1,2017-09-06T21:00:00Z,26.5255,-82.0032,2.68,-9999.0,1111122 
SCCF RECON,ioos:station:SCCF:13:1,2017-09-06T22:00:00Z,26.5255,-82.0032,2.56,-9999.0,1111122 
SCCF RECON,ioos:station:SCCF:13:1,2017-09-06T23:00:00Z,26.5255,-82.0032,2.48,-9999.0,1111122 
SCCF RECON,ioos:station:SCCF:13:1,2017-09-07T00:00:00Z,26.5255,-82.0032,2.39,-9999.0,1111122 
SCCF RECON,ioos:station:SCCF:13:1,2017-09-07T01:00:00Z,26.5255,-82.0032,2.33,-9999.0,1111122 
SCCF RECON,ioos:station:SCCF:13:1,2017-09-07T02:00:00Z,26.5255,-82.0032,2.36,-9999.0,1111122 
SCCF RECON,ioos:station:SCCF:13:1,2017-09-07T03:00:00Z,26.5255,-82.0032,2.52,-9999.0,1111122 
SCCF RECON,ioos:station:SCCF:13:1,2017-09-07T04:00:00Z,26.5255,-82.0032,2.63,-9999.0,1111122 
SCCF RECON,ioos:station:SCCF:13:1,2017-09-07T05:00:00Z,26.5255,-82.0032,2.69,-9999.0,1111122 
SCCF RECON,ioos:station:SCCF:13:1,2017-09-07T06:00:00Z,26.5255,-82.0032,2.74,-9999.0,1111122 
SCCF RECON,ioos:station:SCCF:13:1,2017-09-07T07:00:00Z,26.5255,-82.0032,2.79,-9999.0,1111122 
SCCF RECON,ioos:station:SCCF:13:1,2017-09-07T08:00:00Z,26.5255,-82.0032,2.74,-9999.0,1111122 
SCCF RECON,ioos:station:SCCF:13:1,2017-09-07T09:00:00Z,26.5255,-82.0032,2.618,-9999.0,1111122 
SCCF RECON,ioos:station:SCCF:13:1,2017-09-07T10:00:00Z,26.5255,-82.0032,2.498,-9999.0,1111122 
SCCF RECON,ioos:station:SCCF:13:1,2017-09-07T11:00:00Z,26.5255,-82.0032,2.42,-9999.0,1111122 
SCCF RECON,ioos:station:SCCF:13:1,2017-09-07T12:00:00Z,26.5255,-82.0032,2.34,-9999.0,1111122 
SCCF RECON,ioos:station:SCCF:13:1,2017-09-07T13:00:00Z,26.5255,-82.0032,2.289,-9999.0,1111122 
SCCF RECON,ioos:station:SCCF:13:1,2017-09-07T14:00:00Z,26.5255,-82.0032,2.353,-9999.0,1111122 
SCCF RECON,ioos:station:SCCF:13:1,2017-09-07T15:00:00Z,26.5255,-82.0032,2.57,-9999.0,1111122 
SCCF RECON,ioos:station:SCCF:13:1,2017-09-07T16:00:00Z,26.5255,-82.0032,2.7,-9999.0,1111122 
SCCF RECON,ioos:station:SCCF:13:1,2017-09-07T17:00:00Z,26.5255,-82.0032,2.777,-9999.0,1111122 
SCCF RECON,ioos:station:SCCF:13:1,2017-09-07T18:00:00Z,26.5255,-82.0032,2.836,-9999.0,1111122 
SCCF RECON,ioos:station:SCCF:13:1,2017-09-07T19:00:00Z,26.5255,-82.0032,2.85,-9999.0,1111122 
SCCF RECON,ioos:station:SCCF:13:1,2017-09-07T20:00:00Z,26.5255,-82.0032,2.8,-9999.0,1111122 
SCCF RECON,ioos:station:SCCF:13:1,2017-09-07T21:00:00Z,26.5255,-82.0032,2.69,-9999.0,1111122 
SCCF RECON,ioos:station:SCCF:13:1,2017-09-07T22:00:00Z,26.5255,-82.0032,2.55,-9999.0,1111122 
SCCF RECON,ioos:station:SCCF:13:1,2017-09-07T23:00:00Z,26.5255,-82.0032,2.48,-9999.0,1111122 
SCCF RECON,ioos:station:SCCF:13:1,2017-09-08T00:00:00Z,26.5255,-82.0032,2.406,-9999.0,1111122 
SCCF RECON,ioos:station:SCCF:13:1,2017-09-08T01:00:00Z,26.5255,-82.0032,2.33,-9999.0,1111122 
SCCF RECON,ioos:station:SCCF:13:1,2017-09-08T02:00:00Z,26.5255,-82.0032,2.3,-9999.0,1111122 
SCCF RECON,ioos:station:SCCF:13:1,2017-09-08T03:00:00Z,26.5255,-82.0032,2.395,-9999.0,1111122 
SCCF RECON,ioos:station:SCCF:13:1,2017-09-08T04:00:00Z,26.5255,-82.0032,2.51,-9999.0,1111122 
SCCF RECON,ioos:station:SCCF:13:1,2017-09-08T05:00:00Z,26.5255,-82.0032,2.62,-9999.0,1111122 
SCCF RECON,ioos:station:SCCF:13:1,2017-09-08T06:00:00Z,26.5255,-82.0032,2.673,-9999.0,1111122 
SCCF RECON,ioos:station:SCCF:13:1,2017-09-08T07:00:00Z,26.5255,-82.0032,2.72,-9999.0,1111122 
SCCF RECON,ioos:station:SCCF:13:1,2017-09-08T08:00:00Z,26.5255,-82.0032,2.7,-9999.0,1111122 
SCCF RECON,ioos:station:SCCF:13:1,2017-09-08T09:00:00Z,26.5255,-82.0032,2.61,-9999.0,1111122 
SCCF RECON,ioos:station:SCCF:13:1,2017-09-08T10:00:00Z,26.5255,-82.0032,2.54,-9999.0,1111122 
SCCF RECON,ioos:station:SCCF:13:1,2017-09-08T11:00:00Z,26.5255,-82.0032,2.417,-9999.0,1111122 
SCCF RECON,ioos:station:SCCF:13:1,2017-09-08T12:00:00Z,26.5255,-82.0032,2.311,-9999.0,1111122 
SCCF RECON,ioos:station:SCCF:13:1,2017-09-08T13:00:00Z,26.5255,-82.0032,2.24,-9999.0,1111122 
SCCF RECON,ioos:station:SCCF:13:1,2017-09-08T14:00:00Z,26.5255,-82.0032,2.23,-9999.0,1111122 
SCCF RECON,ioos:station:SCCF:13:1,2017-09-08T15:00:00Z,26.5255,-82.0032,2.34,-9999.0,1111122 
SCCF RECON,ioos:station:SCCF:13:1,2017-09-08T16:00:00Z,26.5255,-82.0032,2.513,-9999.0,1111122 
SCCF RECON,ioos:station:SCCF:13:1,2017-09-08T17:00:00Z,26.5255,-82.0032,2.6,-9999.0,1111122 
SCCF RECON,ioos:station:SCCF:13:1,2017-09-08T18:00:00Z,26.5255,-82.0032,2.677,-9999.0,1111122 
SCCF RECON,ioos:station:SCCF:13:1,2017-09-08T19:00:00Z,26.5255,-82.0032,2.73,-9999.0,1111122 
SCCF RECON,ioos:station:SCCF:13:1,2017-09-08T20:00:00Z,26.5255,-82.0032,2.73,-9999.0,1111122 
SCCF RECON,ioos:station:SCCF:13:1,2017-09-08T21:00:00Z,26.5255,-82.0032,2.65,-9999.0,1111122 
SCCF RECON,ioos:station:SCCF:13:1,2017-09-08T22:00:00Z,26.5255,-82.0032,2.51,-9999.0,1111122 
SCCF RECON,ioos:station:SCCF:13:1,2017-09-08T23:00:00Z,26.5255,-82.0032,2.381,-9999.0,1111122 
SCCF RECON,ioos:station:SCCF:13:1,2017-09-09T00:00:00Z,26.5255,-82.0032,2.302,-9999.0,1111122 
SCCF RECON,ioos:station:SCCF:13:1,2017-09-09T01:00:00Z,26.5255,-82.0032,2.23,-9999.0,1111122 
SCCF RECON,ioos:station:SCCF:13:1,2017-09-09T02:00:00Z,26.5255,-82.0032,2.16,-9999.0,1111122 
SCCF RECON,ioos:station:SCCF:13:1,2017-09-09T03:00:00Z,26.5255,-82.0032,2.15,-9999.0,1111122 
SCCF RECON,ioos:station:SCCF:13:1,2017-09-09T04:00:00Z,26.5255,-82.0032,2.26,-9999.0,1111122 
SCCF RECON,ioos:station:SCCF:13:1,2017-09-09T05:00:00Z,26.5255,-82.0032,2.399,-9999.0,1111122 
SCCF RECON,ioos:station:SCCF:13:1,2017-09-09T06:00:00Z,26.5255,-82.0032,2.488,-9999.0,1111122 
SCCF RECON,ioos:station:SCCF:13:1,2017-09-09T07:00:00Z,26.5255,-82.0032,2.54,-9999.0,1111122 
SCCF RECON,ioos:station:SCCF:13:1,2017-09-09T08:00:00Z,26.5255,-82.0032,2.569,-9999.0,1111122 
SCCF RECON,ioos:station:SCCF:13:1,2017-09-09T09:00:00Z,26.5255,-82.0032,2.52,-9999.0,1111122 
SCCF RECON,ioos:station:SCCF:13:1,2017-09-09T10:00:00Z,26.5255,-82.0032,2.392,-9999.0,1111122 
SCCF RECON,ioos:station:SCCF:13:1,2017-09-09T11:00:00Z,26.5255,-82.0032,2.27,-9999.0,1111122 
SCCF RECON,ioos:station:SCCF:13:1,2017-09-09T12:00:00Z,26.5255,-82.0032,2.18,-9999.0,1111122 
SCCF RECON,ioos:station:SCCF:13:1,2017-09-09T13:00:00Z,26.5255,-82.0032,2.101,-9999.0,1111122 
SCCF RECON,ioos:station:SCCF:13:1,2017-09-09T14:00:00Z,26.5255,-82.0032,2.05,-9999.0,1111122 
SCCF RECON,ioos:station:SCCF:13:1,2017-09-09T15:00:00Z,26.5255,-82.0032,2.07,-9999.0,1111122 
SCCF RECON,ioos:station:SCCF:13:1,2017-09-09T16:00:00Z,26.5255,-82.0032,2.239,-9999.0,1111122 
SCCF RECON,ioos:station:SCCF:13:1,2017-09-09T17:00:00Z,26.5255,-82.0032,2.311,-9999.0,1111122 
SCCF RECON,ioos:station:SCCF:13:1,2017-09-09T18:00:00Z,26.5255,-82.0032,2.338,-9999.0,1111122 
SCCF RECON,ioos:station:SCCF:13:1,2017-09-09T19:00:00Z,26.5255,-82.0032,2.381,-9999.0,1111122 
SCCF RECON,ioos:station:SCCF:13:1,2017-09-09T20:00:00Z,26.5255,-82.0032,2.449,-9999.0,1111122 
SCCF RECON,ioos:station:SCCF:13:1,2017-09-09T21:00:00Z,26.5255,-82.0032,2.437,-9999.0,1111122 
SCCF RECON,ioos:station:SCCF:13:1,2017-09-09T22:00:00Z,26.5255,-82.0032,2.331,-9999.0,1111122 
SCCF RECON,ioos:station:SCCF:13:1,2017-09-09T23:00:00Z,26.5255,-82.0032,2.198,-9999.0,1111122 
SCCF RECON,ioos:station:SCCF:13:1,2017-09-10T00:00:00Z,26.5255,-82.0032,2.09,-9999.0,1111122 
SCCF RECON,ioos:station:SCCF:13:1,2017-09-10T01:00:00Z,26.5255,-82.0032,2.03,-9999.0,1111122 
SCCF RECON,ioos:station:SCCF:13:1,2017-09-10T02:00:00Z,26.5255,-82.0032,1.97,-9999.0,1111122 
SCCF RECON,ioos:station:SCCF:13:1,2017-09-10T03:00:00Z,26.5255,-82.0032,1.889,-9999.0,1111122 
SCCF RECON,ioos:station:SCCF:13:1,2017-09-10T04:00:00Z,26.5255,-82.0032,1.81,-9999.0,1111122 
SCCF RECON,ioos:station:SCCF:13:1,2017-09-10T05:00:00Z,26.5255,-82.0032,1.82,-9999.0,1111122 
SCCF RECON,ioos:station:SCCF:13:1,2017-09-10T06:00:00Z,26.5255,-82.0032,1.859,-9999.0,1111122 
SCCF RECON,ioos:station:SCCF:13:1,2017-09-10T07:00:00Z,26.5255,-82.0032,1.946,-9999.0,1111122 
SCCF RECON,ioos:station:SCCF:13:1,2017-09-10T08:00:00Z,26.5255,-82.0032,1.93,-9999.0,1111122 
SCCF RECON,ioos:station:SCCF:13:1,2017-09-10T09:00:00Z,26.5255,-82.0032,1.85,-9999.0,1111122 
SCCF RECON,ioos:station:SCCF:13:1,2017-09-10T10:00:00Z,26.5255,-82.0032,1.749,-9999.0,1111122 
SCCF RECON,ioos:station:SCCF:13:1,2017-09-10T11:00:00Z,26.5255,-82.0032,1.644,-9999.0,1111122 
SCCF RECON,ioos:station:SCCF:13:1,2017-09-10T12:00:00Z,26.5255,-82.0032,1.51,-9999.0,1111122 
SCCF RECON,ioos:station:SCCF:13:1,2017-09-10T13:00:00Z,26.5255,-82.0032,1.4,-9999.0,1111122 
SCCF RECON,ioos:station:SCCF:13:1,2017-09-10T14:00:00Z,26.5255,-82.0032,1.358,-9999.0,1111122 
SCCF RECON,ioos:station:SCCF:13:1,2017-09-10T15:00:00Z,26.5255,-82.0032,1.334,-9999.0,1111122 
SCCF RECON,ioos:station:SCCF:13:1,2017-09-10T16:00:00Z,26.5255,-82.0032,1.261,-9999.0,1111122 
SCCF RECON,ioos:station:SCCF:13:1,2017-09-10T17:00:00Z,26.5255,-82.0032,1.216,-9999.0,1111122 
SCCF RECON,ioos:station:SCCF:13:1,2017-09-10T18:00:00Z,26.5255,-82.0032,1.179,-9999.0,1111122 
SCCF RECON,ioos:station:SCCF:13:1,2017-09-10T19:00:00Z,26.5255,-82.0032,1.176,-9999.0,1111122 
SCCF RECON,ioos:station:SCCF:13:1,2017-09-10T20:00:00Z,26.5255,-82.0032,1.179,-9999.0,1111122 
SCCF RECON,ioos:station:SCCF:13:1,2017-09-10T21:00:00Z,26.5255,-82.0032,1.18,-9999.0,1111122 
SCCF RECON,ioos:station:SCCF:13:1,2017-09-10T22:00:00Z,26.5255,-82.0032,1.114,-9999.0,1111122 
SCCF RECON,ioos:station:SCCF:13:1,2017-09-10T23:00:00Z,26.5255,-82.0032,1.34,-9999.0,1111122 
SCCF RECON,ioos:station:SCCF:13:1,2017-09-11T00:00:00Z,26.5255,-82.0032,2.03,-9999.0,1111122 
SCCF RECON,ioos:station:SCCF:13:1,2017-09-11T01:00:00Z,26.5255,-82.0032,2.318,-9999.0,1111122 
SCCF RECON,ioos:station:SCCF:13:1,2017-09-11T02:00:00Z,26.5255,-82.0032,2.496,-9999.0,1111122 
SCCF RECON,ioos:station:SCCF:13:1,2017-09-11T03:00:00Z,26.5255,-82.0032,2.601,-9999.0,1111122 
SCCF RECON,ioos:station:SCCF:13:1,2017-09-11T04:00:00Z,26.5255,-82.0032,2.736,-9999.0,1111122 
SCCF RECON,ioos:station:SCCF:13:1,2017-09-11T05:00:00Z,26.5255,-82.0032,2.893,-9999.0,1111122 
SCCF RECON,ioos:station:SCCF:13:1,2017-09-11T06:00:00Z,26.5255,-82.0032,2.972,-9999.0,1111122 
SCCF RECON,ioos:station:SCCF:13:1,2017-09-11T07:00:00Z,26.5255,-82.0032,3.025,-9999.0,1111122 
SCCF RECON,ioos:station:SCCF:13:1,2017-09-11T08:00:00Z,26.5255,-82.0032,3.023,-9999.0,1111122 
SCCF RECON,ioos:station:SCCF:13:1,2017-09-11T09:00:00Z,26.5255,-82.0032,2.991,-9999.0,1111122 
SCCF RECON,ioos:station:SCCF:13:1,2017-09-11T10:00:00Z,26.5255,-82.0032,2.996,-9999.0,1111122 
SCCF RECON,ioos:station:SCCF:13:1,2017-09-11T11:00:00Z,26.5255,-82.0032,3.074,-9999.0,1111122 
SCCF RECON,ioos:station:SCCF:13:1,2017-09-11T12:00:00Z,26.5255,-82.0032,3.008,-9999.0,1111122 